Weather past 2 weeks in Jamestown, Saint Helena

Now
61 °F

Low clouds.


Feels Like: 61 °F
Forecast: 67 / 70 °F
Wind: 12 mph from Southeast

Location: Saint Helena Island

Current Time: Aug 1, 2014 at 10:46:49 AM

Latest Report: Aug 1, 2014 at 10:00 AM


Visibility: 3 mi

Pressure: 30.18 "Hg

Humidity: 96%

Dew point: 60 °F

Location of JamestownLocation

Historic Weather in Jamestown — Graph

°F

Jamestown temperature yesterday

Maximum temperature yesterday: 64 °F (at 3:00 PM)
Minimum temperature yesterday: 54 °F (at 11:00 PM)
Average temperature yesterday: 60 °F

Past Weeks' High & Low Weather Summary

 TemperatureHumidityPressure
High65 °F (Jul 30, 2:00 PM)99% (Jul 17, 9:00 AM)30.29 "Hg (Jul 17, 9:00 AM)
Low54 °F (Jul 31, 11:00 PM)65% (Jul 28, 4:00 AM)30.05 "Hg (Jul 29, 4:00 PM)
Average60 °F88%30.18 "Hg
* Reported Jul 17 9:00 AM — Aug 1 9:00 AM, Jamestown, Weather by CustomWeather, © 2014

Note: Actual official high and low records may vary slightly from our data, if they occured in-between our weather recording intervals... More about our weather records

Advertising

Jamestown weather history for previous 24 hours

 ConditionsComfort  
Time TempWeatherWind HumidityBarometerVisibility
9:00 AM
Aug 1
62 °FFog.8 mph94%30.16 "Hg3 mi
8:00 AM62 °FCool.7 mph89%30.14 "HgN/A
7:00 AM60 °FCool.5 mph92%30.14 "HgN/A
5:00 AM58 °FCool.7 mph93%30.12 "HgN/A
4:00 AM60 °FCool.6 mph93%30.11 "HgN/A
3:00 AM59 °FCool.5 mph91%30.13 "HgN/A
2:00 AM59 °FCool.6 mph85%30.14 "HgN/A
1:00 AM57 °FCool.3 mph92%30.15 "HgN/A
11:00 PM
Jul 31
54 °FCool.No wind94%30.16 "HgN/A
10:00 PM57 °FCool.3 mph93%30.17 "HgN/A
9:00 PM57 °FCool.3 mph98%30.16 "HgN/A
8:00 PM58 °FCool.3 mph96%30.15 "HgN/A
7:00 PM61 °FCool.1 mph93%30.13 "HgN/A
6:00 PM62 °FCool.1 mph92%30.12 "HgN/A
5:00 PM62 °FCool.6 mph93%30.11 "HgN/A
4:00 PM63 °FMild.5 mph78%30.11 "HgN/A
3:00 PM64 °FOvercast.3 mph80%30.11 "Hg12 mi
2:00 PM61 °FDrizzle. Low clouds.5 mph91%30.13 "Hg3 mi
1:00 PM61 °FLight rain. Low clouds.5 mph92%30.14 "Hg3 mi
12:00 PM62 °FSprinkles. Low clouds.5 mph92%30.16 "Hg3 mi
11:00 AM62 °FSprinkles. Low clouds.6 mph91%30.16 "Hg12 mi
10:00 AM62 °FLow clouds.7 mph90%30.15 "Hg19 mi
Weather by CustomWeather, © 2014

See weather overviewHow to use our weather pages